CCA096 UHWW-RJTT

Flight info

Callsign CCA096
Flight time N/A
Altitude 21000
Route PERAS2F PERAS A723 SEGUL/K0817F290 A723 LAMKA/K0872F390 A723 ARLAS B451 IGROD/N0471F390 B451 KADBO R211 GTC Y303 SASAP Y10 GODIN
Aircraft A346/H-SDE2E3FGHIJ3J4J5M1RWXY/LB1D1

Departure

Time 2026-04-22 09:53
Airport Vladivostok International Airport (UHWW)

Arrival

Time N/A
Airport Tokyo Haneda International Airport (RJTT)
Time Latitude Longitude Altitude Speed Heading
2026-04-22 09:53 43.45877 132.30363 5110 ft 273 kts 56°
2026-04-22 09:53 43.46815 132.32699 5659 ft 282 kts 56°
2026-04-22 09:53 43.47778 132.35075 6442 ft 281 kts 55°
2026-04-22 09:54 43.48685 132.37453 7239 ft 285 kts 68°
2026-04-22 09:54 43.48790 132.40238 7842 ft 300 kts 103°
2026-04-22 09:54 43.48133 132.42983 8565 ft 304 kts 107°
2026-04-22 09:54 43.47499 132.45782 9299 ft 307 kts 104°
2026-04-22 09:55 43.46912 132.48630 9990 ft 311 kts 105°
2026-04-22 09:55 43.46284 132.51508 10650 ft 316 kts 105°
2026-04-22 09:55 43.45720 132.54488 11125 ft 327 kts 101°
2026-04-22 09:55 43.45226 132.57615 11490 ft 343 kts 102°
2026-04-22 09:56 43.44628 132.60833 11811 ft 359 kts 104°
2026-04-22 09:56 43.43955 132.64227 12157 ft 376 kts 104°
2026-04-22 09:56 43.43250 132.67782 12484 ft 393 kts 104°
2026-04-22 09:56 43.42527 132.71488 12791 ft 408 kts 104°
2026-04-22 09:57 43.41786 132.75313 13369 ft 415 kts 104°
2026-04-22 09:57 43.41042 132.79167 14066 ft 418 kts 104°
2026-04-22 09:57 43.40293 132.83060 14665 ft 423 kts 104°
2026-04-22 09:57 43.39633 132.87033 15232 ft 427 kts 98°
2026-04-22 09:58 43.39279 132.91116 15753 ft 432 kts 92°
2026-04-22 09:58 43.39242 132.95270 16321 ft 437 kts 87°
2026-04-22 09:58 43.39327 132.99478 16882 ft 442 kts 86°
2026-04-22 09:58 43.39436 133.03719 17497 ft 447 kts 86°
2026-04-22 09:59 43.39538 133.08026 18079 ft 452 kts 86°
2026-04-22 09:59 43.39630 133.12378 18570 ft 458 kts 86°
2026-04-22 09:59 43.39714 133.16785 19024 ft 463 kts 86°
2026-04-22 09:59 43.39794 133.21251 19458 ft 470 kts 86°
2026-04-22 10:00 43.39870 133.25771 19885 ft 475 kts 86°
2026-04-22 10:00 43.39945 133.30354 20364 ft 481 kts 86°
2026-04-22 10:00 43.40021 133.34980 20805 ft 486 kts 87°
2026-04-22 10:00 43.40060 133.39673 21222 ft 492 kts 88°
2026-04-22 10:01 43.40065 133.44405 21676 ft 498 kts 88°
2026-04-22 10:01 43.40062 133.49199 22102 ft 503 kts 88°
2026-04-22 10:01 43.40058 133.54045 22543 ft 508 kts 88°
2026-04-22 10:01 43.40057 133.58929 23078 ft 511 kts 88°
2026-04-22 10:02 43.40055 133.63830 23571 ft 514 kts 88°
2026-04-22 10:02 43.40052 133.68775 23926 ft 518 kts 88°
2026-04-22 10:02 43.40047 133.73756 24263 ft 523 kts 88°
2026-04-22 10:02 43.40041 133.78816 24628 ft 527 kts 88°
2026-04-22 10:03 43.39956 133.83888 25000 ft 532 kts 95°
2026-04-22 10:03 43.39145 133.88859 25342 ft 534 kts 112°
2026-04-22 10:03 43.37463 133.93368 25704 ft 528 kts 130°
2026-04-22 10:03 43.35223 133.97371 26083 ft 527 kts 135°
2026-04-22 10:04 43.32907 134.01222 26345 ft 532 kts 136°
2026-04-22 10:04 43.30526 134.05158 26665 ft 537 kts 135°
2026-04-22 10:04 43.28147 134.09143 27003 ft 542 kts 135°
2026-04-22 10:04 43.25769 134.13183 27358 ft 545 kts 135°
2026-04-22 10:05 43.23391 134.17268 27699 ft 549 kts 135°
2026-04-22 10:05 43.21010 134.21375 28160 ft 550 kts 135°
2026-04-22 10:05 43.18628 134.25483 28703 ft 549 kts 135°
2026-04-22 10:05 43.16252 134.29579 29223 ft 549 kts 135°
2026-04-22 10:06 43.13868 134.33683 29709 ft 550 kts 135°
2026-04-22 10:06 43.11484 134.37778 30136 ft 550 kts 135°
2026-04-22 10:06 43.09091 134.41880 30503 ft 552 kts 135°
2026-04-22 10:06 43.06691 134.45986 30861 ft 553 kts 135°
2026-04-22 10:07 43.04286 134.50096 31273 ft 553 kts 135°
2026-04-22 10:07 43.01884 134.54198 31697 ft 552 kts 135°
2026-04-22 10:07 42.99486 134.58288 32122 ft 551 kts 135°
2026-04-22 10:07 42.97085 134.62370 32524 ft 551 kts 135°
2026-04-22 10:08 42.94679 134.66440 32909 ft 551 kts 135°
2026-04-22 10:08 42.92266 134.70512 33289 ft 551 kts 135°
2026-04-22 10:08 42.89856 134.74572 33692 ft 550 kts 135°
2026-04-22 10:08 42.87444 134.78631 34041 ft 550 kts 135°
2026-04-22 10:09 42.85034 134.82681 34394 ft 549 kts 135°
2026-04-22 10:09 42.82635 134.86711 34746 ft 546 kts 136°
2026-04-22 10:09 42.80245 134.90722 35174 ft 543 kts 136°
2026-04-22 10:09 42.77864 134.94709 35526 ft 541 kts 136°
2026-04-22 10:10 42.75482 134.98687 35783 ft 542 kts 136°
2026-04-22 10:10 42.73088 135.02679 35982 ft 543 kts 136°
2026-04-22 10:10 42.70693 135.06671 36189 ft 544 kts 136°
2026-04-22 10:10 42.68301 135.10658 36442 ft 544 kts 136°
2026-04-22 10:11 42.65903 135.14646 36664 ft 544 kts 136°
2026-04-22 10:11 42.63511 135.18634 36845 ft 545 kts 136°
2026-04-22 10:11 42.58715 135.26645 36855 ft 546 kts 136°
2026-04-22 10:12 42.53914 135.34654 36849 ft 548 kts 136°
2026-04-22 10:12 42.49091 135.42666 36856 ft 548 kts 136°
2026-04-22 10:13 42.44249 135.50657 36831 ft 548 kts 137°
2026-04-22 10:13 42.39390 135.58630 36853 ft 550 kts 137°
2026-04-22 10:14 42.34514 135.66618 36858 ft 550 kts 137°